User: anonymous   Login
Location: Mentone
(34.5413°N, 85.5351°W)
Time: 21:53:51
(UTC-06:00)
Language:

AO-Echo - Orbit

View from above orbital plane
View from above orbital plane
View from above satellite
View from above satellite

Ground track
Ground track

The orbit data is extracted from the following two-line orbital elements,

1 28375U 04025K   17053.99899230  .00000010  00000-0  16336-4 0  9995
2 28375  98.3513 349.8791 0081318 267.9106  91.2770 14.41825313665363
Epoch (UTC): 22 February 2017 23:58:32
Eccentricity: 0.0081318
inclination: 98.3513°
perigee height: 694 km
apogee height: 810 km
right ascension of ascending node: 349.8791°
argument of perigee: 267.9106°
revolutions per day: 14.41825313
mean anomaly at epoch: 91.2770°
orbit number at epoch: 66536

The dashed part of the orbit path shows where the satellite is in the earth's shadow,  

DLR